Back to catalog

STARLINK-34535

AliveCommunicationsVLEO
NORAD 64698·PAYLOAD·🇺🇸 United States

Launched Jun 28, 2025 from Vandenberg Space Force Base

Loading…

Next Passes (next 24 hours)

TLE

FreshSource: CelesTrak SupGP

Epoch: Sep 14, 2026, 21:18 UTC

1 64698C 25142C   26257.88798611 -.00002234  00000+0 -77703-4 0  2574
2 64698  70.0015 195.8427 0003123 263.6622 321.2253 15.29589744    13

Track STARLINK-34535 in real time with AllMySat

Download on the App Store